Terug naar catalogus

NOAA 16 DEB

ActiefPO
NORAD 41367·DEBRIS·🇺🇸 United States

Gelanceerd Sep 21, 2000 vanaf Vandenberg Space Force Base

Loading…

Volgende Passages (komende 24 uur)

TLE

VersSource: Space-Track

Epoch: Sep 11, 2026, 14:27 UTC

1 41367U 00055JL  26254.60253406  .00005137  00000-0  11121-2 0  9990
2 41367  98.9880 126.4117 0028488 243.6308 116.1963 14.58458484552711

Volg NOAA 16 DEB in realtime met AllMySat

Download on the App Store